Terminal Aerodrome Forecast
Issued by NWS Raleigh/Durham, NC

Home | Current Version | Previous Version | Text Only | Print | Product List | Glossary On
Versions: 1 2 3 4 5 6 7 8 9 10 11 12 13 14 15 16 17 18 19 20 21 22 23 24 25 26 27 28 29 30 31 32 33 34 35 36 37 38 39 40 41 42 43 44 45 46 47 48 49
000
FTUS42 KRAH 261840 AAA
TAFGSO
TAF AMD
KGSO 261840Z 2619/2718 23010KT P6SM BKN025
     FM261930 22012G22KT P6SM SCT030
     FM270300 23008KT P6SM OVC045
      TEMPO 2703/2706 5SM -SHRA BKN025
     FM270800 35012G22KT 5SM -SHRA BR OVC025
     FM271100 36010KT 2SM -RA BR OVC006=

USA.gov is the U.S. government's official web portal to all federal, state and local government web resources and services.